TPC5884 KUTA-

Flight info

Callsign TPC5884
Flight time N/A
Altitude VFR/025
Route
Aircraft C172/L-DOV/C

Departure

Time 2026-04-19 00:27
Airport Tunica Municipal Airport (KUTA)

Arrival

Time N/A
Airport -
Time Latitude Longitude Altitude Speed Heading
2026-04-19 00:27 34.74312 -90.34518 3091 ft 60 kts 16°
2026-04-19 00:27 34.74704 -90.34365 3272 ft 59 kts 14°
2026-04-19 00:27 34.75121 -90.34225 3385 ft 67 kts 14°
2026-04-19 00:27 34.75563 -90.34055 3560 ft 67 kts 13°
2026-04-19 00:28 34.76018 -90.33899 3722 ft 69 kts 14°
2026-04-19 00:28 34.76466 -90.33697 3904 ft 69 kts 15°
2026-04-19 00:28 34.76957 -90.33475 3965 ft 74 kts 15°
2026-04-19 00:28 34.77462 -90.33265 3901 ft 77 kts 15°
2026-04-19 00:29 34.77951 -90.33058 3676 ft 71 kts 13°
2026-04-19 00:29 34.78448 -90.32864 3529 ft 78 kts 11°
2026-04-19 00:29 34.79008 -90.32694 3485 ft 87 kts 10°
2026-04-19 00:29 34.79610 -90.32529 3417 ft 81 kts 12°
2026-04-19 00:30 34.80108 -90.32337 3383 ft 74 kts 12°
2026-04-19 00:30 34.80586 -90.32177 3504 ft 72 kts
2026-04-19 00:30 34.81101 -90.32070 3502 ft 76 kts
2026-04-19 00:30 34.81616 -90.31932 3517 ft 77 kts 12°
2026-04-19 00:31 34.82083 -90.31619 3514 ft 82 kts 43°
2026-04-19 00:31 34.82474 -90.31152 3524 ft 79 kts 27°
2026-04-19 00:31 34.82953 -90.30723 3471 ft 90 kts 30°
2026-04-19 00:31 34.83423 -90.30293 3432 ft 81 kts 27°
2026-04-19 00:32 34.83890 -90.29939 3452 ft 81 kts 23°
2026-04-19 00:32 34.84396 -90.29595 3488 ft 82 kts 25°
2026-04-19 00:32 34.84849 -90.29243 3493 ft 78 kts 27°
2026-04-19 00:32 34.85308 -90.28859 3519 ft 82 kts 27°
2026-04-19 00:33 34.85793 -90.28490 3511 ft 83 kts 25°
2026-04-19 00:33 34.86288 -90.28122 3511 ft 82 kts 23°
2026-04-19 00:33 34.86778 -90.27761 3498 ft 82 kts 27°
2026-04-19 00:33 34.87250 -90.27378 3482 ft 83 kts 26°
2026-04-19 00:34 34.88200 -90.26663 3500 ft 77 kts 26°
2026-04-19 00:34 34.88646 -90.26300 3504 ft 79 kts 27°
2026-04-19 00:34 34.89119 -90.25921 3531 ft 82 kts 26°
2026-04-19 00:35 34.89617 -90.25573 3499 ft 82 kts 26°
2026-04-19 00:35 34.90109 -90.25203 3489 ft 84 kts 24°
2026-04-19 00:35 34.90593 -90.24826 3452 ft 82 kts 26°
2026-04-19 00:35 34.91072 -90.24446 3473 ft 83 kts 26°
2026-04-19 00:36 34.91554 -90.24060 3485 ft 82 kts 26°
2026-04-19 00:36 34.92034 -90.23688 3490 ft 82 kts 27°
2026-04-19 00:36 34.92502 -90.23325 3530 ft 78 kts 25°
2026-04-19 00:36 34.92996 -90.23051 3549 ft 78 kts
2026-04-19 00:37 34.93545 -90.23096 3515 ft 79 kts 359°
2026-04-19 00:37 34.94076 -90.23135 3486 ft 79 kts 359°
2026-04-19 00:37 34.94635 -90.23194 3497 ft 83 kts 357°
2026-04-19 00:37 34.95199 -90.23297 3555 ft 80 kts 357°
2026-04-19 00:38 34.95768 -90.23359 3557 ft 85 kts 357°
2026-04-19 00:38 34.96357 -90.23409 3499 ft 84 kts 359°
2026-04-19 00:38 34.96918 -90.23428 3472 ft 76 kts 359°
2026-04-19 00:38 34.97465 -90.23509 3461 ft 82 kts 358°
2026-04-19 00:39 34.98026 -90.23584 3487 ft 83 kts 358°
2026-04-19 00:39 34.98604 -90.23660 3483 ft 82 kts 359°
2026-04-19 00:39 34.99157 -90.23725 3476 ft 78 kts 359°
2026-04-19 00:39 34.99685 -90.23778 3475 ft 75 kts
2026-04-19 00:40 35.00203 -90.23847 3473 ft 74 kts
2026-04-19 00:40 35.00695 -90.23815 3477 ft 73 kts 26°
2026-04-19 00:40 35.01014 -90.23306 3484 ft 77 kts 46°
2026-04-19 00:40 35.01278 -90.22706 3475 ft 83 kts 50°
2026-04-19 00:41 35.01525 -90.22081 3498 ft 83 kts 51°
2026-04-19 00:41 35.01781 -90.21435 3490 ft 86 kts 51°
2026-04-19 00:41 35.02032 -90.20781 3474 ft 84 kts 51°
2026-04-19 00:41 35.02274 -90.20121 3451 ft 86 kts 51°
2026-04-19 00:42 35.02539 -90.19484 3469 ft 83 kts 49°
2026-04-19 00:42 35.02802 -90.18843 3467 ft 84 kts 48°
2026-04-19 00:42 35.03090 -90.18227 3465 ft 83 kts 45°
2026-04-19 00:42 35.03374 -90.17609 3488 ft 84 kts 49°
2026-04-19 00:43 35.03658 -90.16988 3506 ft 82 kts 49°
2026-04-19 00:43 35.03900 -90.16343 3475 ft 86 kts 53°
2026-04-19 00:43 35.04142 -90.15660 3501 ft 90 kts 52°
2026-04-19 00:43 35.04384 -90.14999 3502 ft 76 kts 45°
2026-04-19 00:44 35.04712 -90.14537 3478 ft 78 kts 35°
2026-04-19 00:44 35.05109 -90.14048 3501 ft 82 kts 35°
2026-04-19 00:44 35.05482 -90.13554 3499 ft 79 kts 38°
2026-04-19 00:44 35.05823 -90.13053 3507 ft 73 kts 35°
2026-04-19 00:45 35.06172 -90.12607 3517 ft 75 kts 36°
2026-04-19 00:45 35.06542 -90.12138 3502 ft 76 kts 36°
2026-04-19 00:45 35.06920 -90.11655 3504 ft 79 kts 36°
2026-04-19 00:45 35.07295 -90.11185 3522 ft 76 kts 35°
2026-04-19 00:46 35.07674 -90.10718 3513 ft 78 kts 35°
2026-04-19 00:46 35.08048 -90.10232 3515 ft 78 kts 37°
2026-04-19 00:46 35.08298 -90.09905 3513 ft 78 kts 36°
2026-04-19 00:46 35.08677 -90.09452 3523 ft 76 kts 32°
2026-04-19 00:47 35.09141 -90.09221 3515 ft 73 kts 12°
2026-04-19 00:47 35.09641 -90.09070 3506 ft 74 kts 14°
2026-04-19 00:47 35.10132 -90.08904 3520 ft 73 kts 14°
2026-04-19 00:47 35.10632 -90.08749 3485 ft 74 kts 13°
2026-04-19 00:48 35.11139 -90.08610 3477 ft 74 kts 13°
2026-04-19 00:48 35.11640 -90.08463 3464 ft 75 kts 14°
2026-04-19 00:48 35.12145 -90.08308 3486 ft 73 kts 14°
2026-04-19 00:48 35.12641 -90.08138 3468 ft 75 kts 16°
2026-04-19 00:49 35.13136 -90.07974 3485 ft 71 kts 13°
2026-04-19 00:49 35.13622 -90.07851 3482 ft 71 kts 12°
2026-04-19 00:49 35.14105 -90.07704 3483 ft 72 kts 13°
2026-04-19 00:49 35.14582 -90.07536 3507 ft 71 kts 14°
2026-04-19 00:50 35.15055 -90.07365 3530 ft 73 kts 14°
2026-04-19 00:50 35.15558 -90.07199 3532 ft 76 kts 14°
2026-04-19 00:50 35.16061 -90.06983 3544 ft 77 kts 16°
2026-04-19 00:50 35.16568 -90.06815 3550 ft 74 kts 14°
2026-04-19 00:51 35.17061 -90.06641 3534 ft 75 kts 14°
2026-04-19 00:51 35.17574 -90.06493 3538 ft 76 kts 13°
2026-04-19 00:51 35.18099 -90.06337 3525 ft 79 kts 13°
2026-04-19 00:51 35.18639 -90.06166 3521 ft 81 kts 14°
2026-04-19 00:52 35.19177 -90.05972 3520 ft 78 kts 16°
2026-04-19 00:52 35.19680 -90.05776 3493 ft 76 kts 15°
2026-04-19 00:52 35.20177 -90.05583 3485 ft 74 kts 14°
2026-04-19 00:52 35.20683 -90.05537 3491 ft 72 kts
2026-04-19 00:53 35.21191 -90.05524 3524 ft 71 kts
2026-04-19 00:53 35.21724 -90.05517 3547 ft 81 kts
2026-04-19 00:53 35.22284 -90.05517 3547 ft 83 kts
2026-04-19 00:53 35.22853 -90.05516 3538 ft 80 kts
2026-04-19 00:54 35.23421 -90.05516 3503 ft 82 kts
2026-04-19 00:54 35.23984 -90.05516 3521 ft 82 kts
2026-04-19 00:54 35.24559 -90.05508 3523 ft 80 kts
2026-04-19 00:54 35.25134 -90.05474 3529 ft 86 kts
2026-04-19 00:55 35.25749 -90.05425 3478 ft 91 kts
2026-04-19 00:55 35.26340 -90.05392 3458 ft 79 kts
2026-04-19 00:55 35.26890 -90.05361 3459 ft 80 kts
2026-04-19 00:55 35.27460 -90.05311 3448 ft 82 kts
2026-04-19 00:56 35.28006 -90.05258 3490 ft 79 kts
2026-04-19 00:56 35.28565 -90.05188 3535 ft 82 kts
2026-04-19 00:56 35.29115 -90.05120 3522 ft 80 kts
2026-04-19 00:56 35.29651 -90.05078 3515 ft 77 kts
2026-04-19 00:57 35.30200 -90.05056 3515 ft 82 kts
2026-04-19 00:57 35.30785 -90.05014 3509 ft 85 kts
2026-04-19 00:57 35.31375 -90.04980 3526 ft 86 kts
2026-04-19 00:57 35.31976 -90.04919 3524 ft 87 kts
2026-04-19 00:58 35.32583 -90.04864 3517 ft 89 kts
2026-04-19 00:58 35.33187 -90.04801 3515 ft 85 kts
2026-04-19 00:58 35.33764 -90.04769 3480 ft 82 kts
2026-04-19 00:58 35.34346 -90.04755 3502 ft 85 kts
2026-04-19 00:59 35.34941 -90.04729 3508 ft 84 kts
2026-04-19 00:59 35.35508 -90.04677 3490 ft 79 kts
2026-04-19 00:59 35.36061 -90.04635 3535 ft 82 kts
2026-04-19 00:59 35.36651 -90.04614 3563 ft 87 kts
2026-04-19 01:00 35.37269 -90.04581 3570 ft 88 kts
2026-04-19 01:00 35.37880 -90.04535 3579 ft 87 kts
2026-04-19 01:00 35.38486 -90.04519 3580 ft 87 kts
2026-04-19 01:00 35.39097 -90.04496 3574 ft 88 kts
2026-04-19 01:01 35.39703 -90.04462 3526 ft 90 kts
2026-04-19 01:01 35.40323 -90.04424 3541 ft 86 kts
2026-04-19 01:01 35.40939 -90.04404 3527 ft 90 kts
2026-04-19 01:01 35.41569 -90.04382 3561 ft 90 kts
2026-04-19 01:02 35.42207 -90.04388 3519 ft 95 kts
2026-04-19 01:02 35.42861 -90.04380 3518 ft 92 kts
2026-04-19 01:02 35.43490 -90.04304 3522 ft 89 kts
2026-04-19 01:02 35.44104 -90.04202 3509 ft 88 kts
2026-04-19 01:03 35.44718 -90.04171 3511 ft 88 kts
2026-04-19 01:03 35.45327 -90.04143 3525 ft 87 kts
2026-04-19 01:03 35.45927 -90.04118 3521 ft 88 kts
2026-04-19 01:03 35.46540 -90.04071 3516 ft 88 kts
2026-04-19 01:04 35.47149 -90.04000 3527 ft 88 kts
2026-04-19 01:04 35.47756 -90.03929 3549 ft 86 kts
2026-04-19 01:04 35.48352 -90.03890 3539 ft 85 kts
2026-04-19 01:04 35.48946 -90.03869 3526 ft 87 kts
2026-04-19 01:05 35.49568 -90.03834 3524 ft 91 kts
2026-04-19 01:05 35.50189 -90.03805 3523 ft 88 kts
2026-04-19 01:05 35.50807 -90.03778 3526 ft 89 kts
2026-04-19 01:05 35.51417 -90.03738 3547 ft 88 kts
2026-04-19 01:06 35.52029 -90.03681 3547 ft 89 kts
2026-04-19 01:06 35.52640 -90.03620 3547 ft 90 kts
2026-04-19 01:06 35.53264 -90.03562 3545 ft 90 kts
2026-04-19 01:06 35.53887 -90.03507 3546 ft 89 kts
2026-04-19 01:07 35.54504 -90.03452 3546 ft 88 kts
2026-04-19 01:07 35.55114 -90.03393 3545 ft 87 kts
2026-04-19 01:07 35.55718 -90.03330 3542 ft 87 kts
2026-04-19 01:07 35.56323 -90.03268 3545 ft 88 kts
2026-04-19 01:08 35.56941 -90.03205 3516 ft 92 kts
2026-04-19 01:08 35.57586 -90.03138 3520 ft 94 kts
2026-04-19 01:08 35.58219 -90.03077 3512 ft 90 kts
2026-04-19 01:08 35.58843 -90.03017 3507 ft 87 kts
2026-04-19 01:09 35.59426 -90.02961 3505 ft 84 kts
2026-04-19 01:09 35.60011 -90.02908 3503 ft 83 kts
2026-04-19 01:09 35.60589 -90.02857 3504 ft 84 kts
2026-04-19 01:09 35.61175 -90.02808 3505 ft 84 kts
2026-04-19 01:10 35.61752 -90.02761 3507 ft 84 kts
2026-04-19 01:10 35.62340 -90.02708 3507 ft 85 kts
2026-04-19 01:10 35.62931 -90.02649 3505 ft 85 kts
2026-04-19 01:10 35.63518 -90.02591 3506 ft 83 kts
2026-04-19 01:11 35.64094 -90.02533 3511 ft 83 kts
2026-04-19 01:11 35.64669 -90.02477 3509 ft 83 kts
2026-04-19 01:11 35.65244 -90.02420 3505 ft 82 kts
2026-04-19 01:11 35.65817 -90.02366 3508 ft 83 kts
2026-04-19 01:12 35.66400 -90.02308 3504 ft 85 kts
2026-04-19 01:12 35.66980 -90.02247 3505 ft 85 kts
2026-04-19 01:12 35.67563 -90.02182 3506 ft 85 kts
2026-04-19 01:12 35.68157 -90.02117 3505 ft 85 kts
2026-04-19 01:13 35.68749 -90.02060 3505 ft 86 kts
2026-04-19 01:13 35.69344 -90.02004 3505 ft 86 kts
2026-04-19 01:13 35.69940 -90.01936 3506 ft 86 kts 10°
2026-04-19 01:13 35.70455 -90.01533 3512 ft 90 kts 30°
2026-04-19 01:14 35.70937 -90.01037 3516 ft 91 kts 30°
2026-04-19 01:14 35.71420 -90.00538 3514 ft 91 kts 31°
2026-04-19 01:14 35.71906 -90.00039 3514 ft 91 kts 30°
2026-04-19 01:14 35.72405 -89.99532 3491 ft 93 kts 31°
2026-04-19 01:15 35.72902 -89.99047 3491 ft 90 kts 31°
2026-04-19 01:15 35.73395 -89.98578 3486 ft 89 kts 30°
2026-04-19 01:15 35.73879 -89.98110 3484 ft 88 kts 30°
2026-04-19 01:15 35.74349 -89.97636 3482 ft 87 kts 30°
2026-04-19 01:16 35.74815 -89.97164 3482 ft 86 kts 30°
2026-04-19 01:16 35.75281 -89.96694 3482 ft 87 kts 30°
2026-04-19 01:16 35.75750 -89.96213 3475 ft 87 kts 30°
2026-04-19 01:16 35.76212 -89.95733 3474 ft 87 kts 30°
2026-04-19 01:17 35.76673 -89.95254 3471 ft 87 kts 30°
2026-04-19 01:17 35.77140 -89.94775 3472 ft 87 kts 30°
2026-04-19 01:17 35.77612 -89.94293 3475 ft 89 kts 30°
2026-04-19 01:17 35.78086 -89.93798 3476 ft 90 kts 30°
2026-04-19 01:18 35.78557 -89.93310 3478 ft 90 kts 30°
2026-04-19 01:18 35.79034 -89.92816 3479 ft 89 kts 30°
2026-04-19 01:18 35.79512 -89.92322 3480 ft 90 kts 30°
2026-04-19 01:18 35.79999 -89.91825 3481 ft 91 kts 30°
2026-04-19 01:19 35.80490 -89.91326 3476 ft 92 kts 30°
2026-04-19 01:19 35.80984 -89.90825 3481 ft 92 kts 30°
2026-04-19 01:19 35.81475 -89.90333 3474 ft 90 kts 30°
2026-04-19 01:19 35.81949 -89.89839 3484 ft 88 kts 31°
2026-04-19 01:20 35.82403 -89.89337 3473 ft 88 kts 32°
2026-04-19 01:20 35.82847 -89.88835 3472 ft 86 kts 31°
2026-04-19 01:20 35.83310 -89.88342 3424 ft 90 kts 31°
2026-04-19 01:20 35.83784 -89.87825 3445 ft 92 kts 32°
2026-04-19 01:21 35.84182 -89.87243 3278 ft 85 kts 44°
2026-04-19 01:21 35.84507 -89.86626 2954 ft 84 kts 40°
2026-04-19 01:21 35.84934 -89.86254 2760 ft 70 kts
2026-04-19 01:21 35.85438 -89.86188 2624 ft 74 kts
2026-04-19 01:22 35.85972 -89.86162 2476 ft 75 kts
2026-04-19 01:22 35.86512 -89.86149 2261 ft 79 kts
2026-04-19 01:22 35.87089 -89.86112 2057 ft 85 kts
2026-04-19 01:22 35.87678 -89.86123 1919 ft 86 kts 357°
2026-04-19 01:23 35.88263 -89.86280 1809 ft 89 kts 350°
2026-04-19 01:23 35.88882 -89.86508 1688 ft 96 kts 343°
2026-04-19 01:23 35.89483 -89.86769 1549 ft 87 kts 345°
2026-04-19 01:23 35.90074 -89.86973 1470 ft 91 kts 347°
2026-04-19 01:24 35.90704 -89.87165 1339 ft 95 kts 351°
2026-04-19 01:24 35.91347 -89.87322 1314 ft 94 kts 352°
2026-04-19 01:24 35.91986 -89.87487 1291 ft 92 kts 351°
2026-04-19 01:24 35.92606 -89.87647 1270 ft 91 kts 351°
2026-04-19 01:25 35.93222 -89.87817 1303 ft 89 kts 349°
2026-04-19 01:25 35.93817 -89.87941 1320 ft 85 kts 354°
2026-04-19 01:25 35.94419 -89.88047 1270 ft 94 kts 354°
2026-04-19 01:25 35.95075 -89.88043 1407 ft 95 kts 25°
2026-04-19 01:26 35.95205 -89.87251 1269 ft 120 kts 108°
2026-04-19 01:26 35.94722 -89.86499 1207 ft 110 kts 124°
2026-04-19 01:26 35.94260 -89.85706 1225 ft 114 kts 122°
2026-04-19 01:26 35.93615 -89.85224 1231 ft 105 kts 166°
2026-04-19 01:27 35.92885 -89.85161 1151 ft 109 kts 180°
2026-04-19 01:27 35.92190 -89.85175 1040 ft 90 kts 185°
2026-04-19 01:27 35.91608 -89.85100 988 ft 80 kts 143°
2026-04-19 01:27 35.91409 -89.84550 911 ft 76 kts 82°
2026-04-19 01:28 35.91423 -89.83909 836 ft 71 kts 82°
2026-04-19 01:28 35.91551 -89.83371 702 ft 68 kts 33°
2026-04-19 01:28 35.91991 -89.83115 628 ft 76 kts 13°
2026-04-19 01:28 35.92467 -89.83045 459 ft 63 kts 358°
2026-04-19 01:29 35.92909 -89.83061 388 ft 65 kts
2026-04-19 01:29 35.93355 -89.83065 267 ft 59 kts
2026-04-19 01:29 35.93658 -89.83074 260 ft 22 kts 358°
2026-04-19 01:29 35.93687 -89.83092 260 ft 2 kts 272°
2026-04-19 01:30 35.93688 -89.83108 260 ft 4 kts 274°
2026-04-19 01:30 35.93689 -89.83139 260 ft 0 kts 262°
2026-04-19 01:30 35.93673 -89.83150 260 ft 4 kts 189°
2026-04-19 01:30 35.93660 -89.83155 260 ft 3 kts 189°
2026-04-19 01:31 35.93652 -89.83154 260 ft 4 kts 169°
2026-04-19 01:31 35.93642 -89.83167 260 ft 11 kts 260°
2026-04-19 01:31 35.93645 -89.83184 260 ft 0 kts 296°